Wind_Speed
72 72 71 71 71 71 71 71 71 70 69 69 69 69 69 69 69 68 68 68 69 69 69 70 71 71 72 72 72 73 73 73 73 73 73 74 74 74 74 74 75 75 76 77 78 79 80 81 82 83 83 84 85 86 87 88 89 89 88 88 89 89 90 91 93 94 95 95 89 83 83 86 91 90 89 91 90 91 90 89 87 85 86 85 86 86 84 83
69 68 68 68 68 69 69 69 69 68 68 68 68 69 69 69 69 69 69 69 69 70 70 71 71 72 72 73 73 74 74 74 73 74 75 75 75 75 75 76 76 76 77 78 79 80 81 81 82 82 82 82 83 84 85 86 87 87 87 87 88 89 91 92 94 95 92 90 86 83 85 90 93 89 89 91 90 89 89 87 84 85 85 84 85 84 83 81
65 65 65 65 65 66 66 66 66 66 67 67 68 68 69 69 69 69 70 70 70 70 71 71 72 72 73 73 74 74 74 74 73 75 77 76 76 76 77 77 77 78 78 79 80 81 81 82 82 82 83 83 83 83 84 84 84 85 85 85 86 88 90 92 93 92 88 87 86 85 86 91 92 88 88 89 89 89 88 87 85 85 84 85 85 82 81 79
63 63 63 63 63 63 64 64 65 65 66 66 67 68 68 69 69 69 70 70 70 71 71 72 72 72 73 73 74 74 75 74 74 76 78 77 77 78 78 78 79 79 79 80 81 82 82 83 83 83 83 83 84 84 84 84 84 84 84 83 86 87 89 91 90 87 85 85 85 84 87 90 89 86 87 88 88 88 87 85 83 83 83 85 84 81 79 77
62 62 62 61 62 62 63 63 64 64 65 66 66 67 68 68 69 69 70 70 71 71 71 72 72 73 73 73 74 75 75 74 74 78 79 78 78 79 79 79 80 80 81 81 82 82 83 83 84 84 84 84 84 85 85 85 86 85 84 84 87 87 87 88 85 83 83 82 83 85 87 87 84 84 86 86 86 86 86 82 78 79 81 80 80 79 77 75
61 61 61 60 61 61 62 63 63 64 65 65 66 66 67 68 69 69 70 70 71 71 72 72 72 73 73 74 75 75 76 74 75 80 80 78 79 80 80 80 80 81 81 81 82 82 83 83 83 84 84 84 84 84 85 86 86 86 85 87 88 87 87 86 84 81 80 82 83 85 85 83 82 83 84 83 83 83 84 81 78 79 81 79 78 76 74 71
61 61 60 60 60 60 61 62 62 63 64 65 65 66 67 68 68 69 70 70 71 71 72 72 73 73 74 74 75 75 76 74 76 80 79 78 79 79 79 79 79 80 80 81 81 82 82 82 82 83 83 83 83 84 85 85 85 85 86 88 88 88 86 85 85 80 79 83 84 83 83 82 82 82 82 81 81 81 81 79 77 77 78 77 75 74 73 71
62 61 61 61 60 60 61 61 62 63 63 64 65 66 67 67 68 69 69 70 70 71 71 72 72 73 73 74 74 74 74 73 75 78 77 77 77 77 77 77 78 78 78 79 79 80 80 80 80 81 81 81 82 82 83 84 83 84 86 87 88 88 86 85 85 81 81 85 84 83 83 82 82 81 81 81 80 80 79 77 75 75 73 72 69 68 68 66
62 62 61 61 61 61 61 62 62 63 63 64 65 66 66 67 68 68 69 69 69 70 70 71 71 72 72 72 72 72 71 71 74 75 74 75 75 75 74 74 74 74 75 76 76 77 77 77 78 79 79 79 80 80 81 81 81 82 84 86 86 86 84 84 84 81 82 84 83 83 83 82 82 80 79 81 81 79 78 76 75 74 72 70 65 62 61 61
62 61 61 61 62 62 62 62 62 63 63 64 65 66 66 67 67 67 68 68 68 69 69 69 69 70 70 70 70 69 68 70 71 72 71 71 71 71 71 71 70 70 71 72 73 73 74 75 76 76 76 76 77 77 78 78 79 81 82 83 83 83 82 82 82 81 82 82 82 83 82 82 81 79 79 81 80 77 77 76 74 73 72 70 66 61 61 61
62 62 62 62 62 62 62 62 63 63 63 64 64 65 66 66 66 66 66 66 67 67 68 68 68 68 68 68 68 66 66 67 67 67 67 66 67 67 67 66 66 67 67 68 69 70 71 72 72 73 73 73 74 74 76 76 77 79 79 80 80 80 80 79 79 79 80 80 81 82 81 81 80 78 78 79 78 75 75 75 72 72 71 69 67 64 61 59
62 62 62 62 62 63 63 63 63 63 63 64 64 65 65 65 65 65 65 66 66 66 67 67 67 66 65 65 65 63 63 64 63 62 63 62 62 63 62 62 62 63 63 64 65 66 68 69 69 70 71 72 72 73 74 73 75 76 76 77 77 76 77 76 76 77 77 77 78 79 79 78 76 77 77 78 76 72 73 73 70 70 69 68 65 61 57 53
64 63 63 64 63 64 63 63 63 63 63 64 64 64 65 65 65 65 65 65 66 66 66 66 65 64 63 63 62 60 60 59 58 58 59 58 58 59 59 59 60 60 61 62 63 64 66 66 67 69 70 69 69 72 71 70 72 74 74 75 75 74 74 73 73 74 74 74 75 76 75 74 74 76 76 76 73 70 71 70 68 68 67 65 62 58 55 52
66 66 65 65 65 65 65 65 65 65 65 65 65 65 65 65 65 65 65 65 65 65 65 64 64 62 61 60 58 57 56 55 55 55 55 55 55 56 56 57 57 58 59 60 61 63 64 65 66 69 69 67 69 71 68 68 72 73 73 73 72 72 70 70 71 71 71 71 72 72 71 71 72 74 73 72 70 68 68 67 65 65 64 62 60 57 55 52
68 68 68 68 68 68 67 67 67 67 66 66 66 66 66 66 65 65 65 65 65 64 63 63 61 59 58 56 54 55 52 51 53 53 53 53 53 54 54 55 56 56 57 59 60 61 62 64 65 67 66 66 69 69 66 68 71 72 72 70 70 69 68 69 69 68 68 68 69 68 67 68 70 70 70 69 67 66 66 64 62 63 61 59 58 56 53 50
72 72 72 72 71 71 71 70 70 69 69 68 68 67 67 66 66 65 65 64 63 62 62 60 59 57 55 53 52 51 50 50 52 51 51 51 51 51 52 53 54 55 55 56 57 59 60 62 63 64 64 64 67 66 64 68 69 70 69 68 68 67 67 68 68 67 66 65 65 64 64 65 66 67 67 67 64 63 63 61 60 61 60 58 55 54 51 47
72 72 72 73 73 73 73 73 73 72 71 70 70 69 68 67 66 65 64 63 62 60 59 58 57 54 52 51 50 49 48 49 50 49 49 49 49 49 50 52 52 52 53 54 55 57 58 60 61 62 62 63 65 63 63 65 66 67 67 66 66 67 66 66 67 66 63 62 62 61 61 62 63 64 64 65 63 59 60 60 57 59 60 56 52 50 46 43
72 72 72 73 73 73 73 73 74 73 72 72 71 70 69 67 66 64 62 61 60 58 57 56 55 52 49 49 48 47 47 49 49 48 48 48 47 47 49 50 50 50 51 52 53 55 56 58 59 59 59 60 62 61 61 62 64 66 66 66 66 66 65 65 67 65 60 60 61 59 59 61 62 61 62 63 60 55 58 59 56 57 58 55 50 45 40 37
72 72 72 72 72 73 73 72 72 72 72 71 71 70 69 66 64 61 60 60 58 56 55 55 53 49 48 48 46 45 46 48 48 46 46 46 45 45 46 47 47 48 49 50 52 52 53 55 55 55 56 58 59 60 60 62 65 66 65 64 64 64 63 63 65 64 59 58 60 57 56 60 60 59 60 61 57 54 57 58 55 55 56 54 48 41 36 37
69 69 69 69 69 70 71 71 71 70 70 70 70 69 68 65 63 60 59 59 56 55 54 53 51 48 46 47 46 45 46 47 46 44 44 44 43 43 44 45 45 46 47 48 49 50 50 51 51 52 54 56 58 58 59 62 63 62 61 61 62 61 61 62 63 65 60 55 58 57 55 60 60 57 59 59 55 54 56 56 54 54 53 52 46 40 38 40
66 66 66 66 66 66 68 68 69 69 68 68 68 68 66 64 62 58 57 57 55 53 53 51 49 47 45 45 46 45 45 46 44 42 43 42 41 41 42 43 43 44 45 45 46 47 47 48 49 51 53 53 55 55 57 59 58 58 59 59 60 60 61 62 61 65 62 53 56 57 55 60 59 56 58 58 54 53 55 54 52 52 52 51 45 40 40 40
64 64 64 64 64 64 65 65 66 67 67 66 66 66 65 63 61 57 55 56 55 51 51 50 47 46 44 44 45 44 43 44 42 41 42 40 39 40 40 41 41 42 43 42 43 44 44 46 48 49 50 51 52 53 54 55 54 55 56 57 59 59 61 61 59 65 62 51 54 58 56 60 60 57 57 57 53 52 54 53 50 50 51 50 43 39 39 40
60 60 61 61 62 62 63 63 64 64 64 64 64 63 63 61 59 56 54 54 54 50 48 49 47 44 44 44 45 44 42 42 40 40 41 40 38 39 39 40 39 40 40 41 42 43 43 45 46 47 48 48 48 50 51 52 52 54 55 57 57 58 60 59 60 65 60 49 53 60 59 60 60 57 56 56 55 53 52 52 50 49 51 48 41 39 39 42
55 55 56 57 58 60 61 62 62 62 61 61 61 61 61 60 57 55 52 52 53 50 45 47 48 44 42 43 44 43 41 39 39 39 40 39 37 37 38 38 37 38 39 40 41 41 42 43 44 45 46 45 45 48 49 50 51 52 54 54 55 56 57 58 61 63 58 50 55 62 60 58 57 57 56 56 57 53 50 52 51 49 50 46 39 38 40 41
50 51 52 53 54 56 59 60 59 59 59 58 59 60 59 58 55 53 51 49 50 49 43 45 48 45 41 41 42 42 39 38 39 38 39 38 36 37 37 36 36 37 38 39 40 41 41 41 42 43 43 43 45 48 49 49 50 50 51 52 53 56 55 57 60 59 55 52 57 62 59 55 56 57 57 57 57 53 49 51 51 49 48 43 39 39 40 39
47 48 49 50 51 53 55 57 57 57 57 57 58 58 56 55 53 51 49 47 48 47 43 44 47 45 41 41 41 41 39 38 38 36 38 38 35 36 36 34 35 36 37 38 39 40 40 40 40 41 41 43 45 47 47 48 49 49 49 51 52 54 53 55 58 55 52 54 58 61 58 55 56 56 57 58 56 53 51 50 50 50 46 41 39 39 39 37
44 45 46 47 48 50 52 54 55 55 54 55 56 55 54 53 51 49 47 45 45 45 43 45 46 44 42 40 40 39 38 39 37 35 37 37 34 34 35 34 34 35 36 37 37 39 40 38 39 40 41 43 44 45 46 47 47 47 48 49 51 52 51 52 54 52 52 56 57 57 57 56 56 56 57 58 56 54 52 50 50 50 44 39 40 39 37 33
42 43 43 44 45 46 48 50 52 52 52 53 53 52 51 51 49 48 46 44 43 44 45 45 46 44 41 40 40 39 38 38 37 35 36 35 33 34 34 34 33 34 35 35 36 39 39 38 40 41 41 42 43 44 45 45 45 46 47 48 48 48 48 49 51 51 51 55 55 54 55 55 54 55 55 56 56 54 52 50 50 49 42 39 40 38 35 30
39 40 40 41 42 43 45 46 49 49 49 50 50 49 49 49 48 47 46 42 42 46 46 45 46 44 41 40 40 39 38 38 36 35 35 35 34 35 34 33 33 33 34 35 36 38 37 38 40 39 39 42 43 43 43 43 44 45 44 45 45 45 46 47 49 49 50 52 51 51 53 52 52 54 54 54 54 53 52 49 48 46 41 39 40 37 35 32
37 37 38 38 39 41 41 43 45 46 46 47 47 47 47 47 47 46 44 41 44 48 45 44 48 45 42 41 40 40 39 38 36 35 36 35 34 34 33 33 33 32 33 35 36 36 36 37 38 38 41 43 43 41 42 43 44 44 42 44 45 45 45 47 47 48 50 50 48 48 49 49 50 52 52 51 52 52 51 47 45 44 40 38 39 37 35 35
36 36 36 36 37 38 39 41 42 43 44 45 45 46 45 46 46 44 43 43 47 49 45 45 48 45 43 43 40 41 40 39 38 37 37 35 33 34 33 33 32 32 33 34 35 35 35 36 39 42 43 42 41 41 43 45 44 42 43 45 45 45 45 46 45 47 48 46 46 47 48 48 49 50 49 47 46 47 47 46 44 41 39 38 37 36 35 35
35 35 35 35 36 37 37 40 41 42 43 44 44 44 44 45 43 42 44 47 49 49 45 46 46 43 44 43 41 42 41 39 39 38 36 35 34 34 33 33 32 32 33 34 35 35 35 38 41 43 42 40 40 42 44 44 42 42 44 45 44 45 45 45 45 45 45 44 45 46 47 47 48 48 48 44 41 41 43 43 40 36 36 35 34 34 33 32
35 35 36 36 36 37 38 40 41 42 43 43 44 45 44 43 42 44 47 49 51 50 47 48 46 42 43 43 42 43 41 39 40 39 37 35 34 33 33 33 32 32 33 35 34 33 35 39 41 41 40 39 41 42 43 42 42 43 44 43 44 45 44 44 44 45 44 45 46 46 45 46 46 46 46 43 41 42 40 36 35 34 33 31 30 28 27 27
36 36 37 37 37 38 39 40 42 43 43 44 44 45 44 42 43 47 49 50 52 51 49 49 47 44 44 43 43 42 41 40 40 39 37 35 34 33 33 33 32 32 34 34 33 33 35 37 38 39 39 40 42 42 42 41 42 43 43 43 44 45 44 44 45 46 46 46 46 46 45 45 46 44 42 41 42 43 38 33 33 33 32 30 27 26 27 29
38 38 38 38 38 39 39 41 43 44 44 45 45 44 43 44 46 49 49 51 53 51 51 50 48 46 46 45 44 42 42 41 40 39 37 35 35 34 34 34 32 33 33 32 33 33 34 35 37 39 40 40 41 41 40 40 41 43 43 43 43 44 44 44 45 45 45 45 45 45 44 44 44 42 41 42 41 38 35 34 33 30 28 27 26 28 32 32
38 39 40 40 40 40 41 42 44 45 45 45 44 43 44 46 48 49 49 51 53 52 51 50 48 48 48 47 46 43 44 43 40 38 37 35 35 34 35 34 33 33 33 32 33 34 34 36 37 39 39 40 40 40 40 41 42 44 43 43 43 44 43 44 45 45 44 44 43 44 43 43 44 42 41 41 38 36 36 36 35 31 27 25 27 30 31 32
39 40 41 41 42 43 43 44 45 46 46 46 45 44 46 48 48 49 50 52 54 52 50 49 51 51 49 48 48 46 45 43 40 38 37 36 35 35 35 35 35 34 32 32 33 34 34 35 36 38 38 39 41 41 40 42 43 43 43 43 44 44 43 44 45 45 44 43 43 43 42 42 44 42 40 39 37 35 34 32 32 31 29 28 30 30 28 30
40 41 42 43 44 44 45 46 47 48 48 47 47 48 49 50 50 51 53 53 53 52 51 52 53 52 50 49 49 47 45 41 39 38 38 38 36 36 36 37 36 35 33 33 34 34 33 34 35 36 36 39 41 40 40 42 42 42 43 44 44 44 44 44 44 44 44 43 44 44 43 43 43 41 40 39 37 37 36 32 32 31 29 29 30 30 30 30
41 42 44 45 46 47 47 48 49 49 50 49 49 50 51 51 52 53 54 55 54 52 52 54 55 53 52 50 49 49 45 41 40 40 39 39 37 37 38 37 37 36 34 33 34 34 34 33 34 35 36 39 39 39 40 41 42 43 44 44 44 44 44 43 44 45 45 44 45 46 46 44 42 41 40 38 38 40 38 35 33 30 27 26 27 29 29 29
42 43 44 46 47 48 48 49 50 51 51 51 51 51 52 53 54 54 55 56 54 52 54 56 57 54 52 50 50 51 46 41 41 42 41 40 39 38 38 39 37 35 34 34 35 36 35 33 35 35 36 37 37 38 40 41 42 44 44 44 45 45 45 44 44 44 44 45 46 48 47 44 44 45 42 41 41 41 37 33 32 30 27 25 26 29 29 29
43 43 44 46 48 49 49 49 51 51 51 52 52 52 52 53 54 55 56 57 55 53 55 58 57 54 51 49 51 52 46 42 43 43 40 40 41 39 38 39 39 37 35 34 36 37 35 36 37 35 34 35 36 38 39 41 43 45 46 46 47 48 48 47 45 44 45 47 48 49 47 46 47 48 45 43 43 40 35 34 34 35 33 31 31 31 31 31
44 43 44 46 47 49 50 50 51 51 51 52 51 51 52 52 53 55 56 56 56 55 56 58 56 54 51 50 53 52 47 44 45 44 42 45 44 39 38 41 41 38 36 36 38 39 37 37 37 35 34 35 36 37 39 42 44 45 45 46 47 49 49 48 48 48 49 50 49 49 50 49 50 51 48 45 44 42 38 37 38 39 40 41 41 37 32 33
44 44 44 46 47 48 50 50 51 51 51 52 51 52 52 52 53 55 56 56 57 56 56 57 55 53 52 53 55 53 48 46 47 46 47 49 46 42 42 44 42 39 38 40 42 41 38 37 36 35 35 36 36 37 38 41 43 43 44 45 46 48 48 48 50 51 51 51 51 51 52 52 52 52 49 46 46 47 43 41 42 43 44 47 50 49 45 45
45 45 45 45 46 47 47 47 48 49 48 48 49 50 50 51 52 55 56 57 58 57 57 57 56 55 54 54 55 54 50 48 49 49 49 48 46 45 46 45 43 42 42 42 42 41 39 38 38 37 36 37 39 39 38 40 42 43 44 45 46 47 48 49 50 52 52 51 52 54 54 53 53 52 49 47 48 49 45 42 43 45 46 48 51 53 54 55
43 43 43 42 42 42 42 41 41 42 41 42 43 44 44 45 48 51 53 55 57 58 57 57 58 57 54 53 55 53 50 48 49 49 49 48 46 46 47 46 45 44 43 42 42 42 42 43 41 39 39 40 40 39 40 42 43 44 45 46 47 47 48 49 50 51 51 51 52 54 54 54 54 53 50 48 49 48 47 47 48 49 50 52 53 53 54 57
39 38 38 37 36 36 37 36 35 35 36 37 37 38 38 40 42 45 47 50 53 55 55 57 59 57 55 55 56 54 51 50 49 49 49 49 49 49 49 48 47 48 46 45 45 45 45 46 44 42 43 44 42 41 43 44 44 44 45 45 47 49 50 52 52 50 50 49 49 49 50 52 55 54 51 50 49 48 49 52 55 56 55 56 58 57 57 59
34 34 34 34 34 34 34 33 32 32 33 34 33 33 35 36 39 42 43 45 48 50 51 54 56 56 56 58 58 56 54 52 50 51 51 52 53 53 53 52 51 51 51 50 48 47 46 46 45 45 46 45 44 46 48 47 46 46 46 46 48 50 51 52 52 51 52 51 48 49 50 52 54 54 52 52 52 53 54 56 58 60 59 59 59 59 59 60
31 32 33 33 33 34 32 30 30 29 30 32 32 32 33 33 35 38 39 40 43 45 46 48 50 52 56 59 59 58 56 54 53 54 53 54 55 56 55 53 52 51 52 52 50 48 47 45 45 47 49 47 46 49 50 49 49 49 48 50 51 50 49 51 52 53 54 53 52 53 54 54 55 55 54 54 55 56 58 60 60 61 60 59 59 59 59 60
30 31 32 32 32 32 31 29 28 27 27 28 29 29 31 31 32 34 35 36 39 41 42 45 47 49 53 57 59 59 58 55 54 53 52 54 56 55 54 54 53 53 53 52 51 49 48 46 44 46 50 50 51 51 51 51 52 52 51 52 52 50 49 50 52 53 53 53 54 55 57 57 57 56 55 54 55 56 58 60 61 60 59 58 59 59 59 60
28 28 28 29 29 30 29 27 25 25 24 24 25 26 27 28 29 31 32 34 36 37 39 42 45 46 50 54 55 56 57 56 53 52 53 56 57 56 56 56 55 55 54 53 52 51 49 47 45 45 47 50 53 55 54 54 55 55 54 53 51 50 50 49 50 51 53 54 53 54 58 59 58 57 56 56 56 57 58 59 59 59 58 57 58 58 59 59
26 26 25 25 25 25 26 25 23 22 21 21 21 22 23 25 26 27 29 31 33 34 35 40 43 44 48 51 52 55 60 61 58 57 58 59 58 58 58 58 57 57 56 55 53 50 50 50 49 48 47 48 52 56 57 57 58 58 56 54 54 54 52 50 50 50 51 54 56 56 56 56 57 57 56 56 57 58 58 58 58 58 57 56 57 57 57 58
24 24 23 22 21 21 21 22 21 20 19 19 19 19 20 21 22 23 25 28 30 31 33 38 40 41 45 49 51 56 61 63 61 61 62 60 58 58 58 58 59 59 58 56 54 53 53 53 52 51 50 49 51 53 56 58 59 59 58 57 57 58 56 54 53 52 51 53 56 55 54 54 55 54 54 55 56 57 59 60 61 60 59 58 58 58 58 58
Wind_Direction
263 263 262 262 262 262 261 261 261 261 260 260 260 260 260 259 259 259 259 259 259 259 259 259 259 259 258 258 258 258 259 259 259 259 258 258 258 257 257 257 256 256 256 256 256 256 255 255 255 254 254 254 253 253 253 253 253 253 253 253 253 253 253 253 253 253 254 256 258 258 259 258 257 256 258 259 259 260 261 262 263 264 264 264 265 266 267 268
263 263 263 262 262 261 261 261 261 261 260 260 260 260 259 259 259 259 259 259 259 259 259 259 260 259 259 260 260 259 259 259 260 260 259 259 258 258 258 257 257 257 256 256 256 256 256 255 255 255 255 254 254 253 253 253 253 253 252 252 253 253 253 253 253 253 254 257 258 257 256 256 256 257 257 259 260 261 261 262 263 263 263 264 265 266 267 267
264 263 263 263 262 262 261 261 261 261 261 260 260 260 260 259 259 259 260 260 260 260 260 260 260 260 261 261 261 261 260 260 261 261 260 259 259 259 258 258 258 257 257 257 256 256 256 255 255 255 254 254 254 254 253 253 253 253 252 252 252 252 252 253 253 254 256 257 257 256 255 256 256 257 257 259 259 260 261 262 262 263 264 264 264 266 267 268
264 264 264 263 263 262 262 262 261 261 261 261 260 260 260 260 260 260 260 261 261 261 261 261 261 261 262 262 262 262 262 261 262 261 261 260 260 260 259 259 258 258 257 257 257 256 256 256 255 254 254 253 253 253 253 253 253 253 252 252 252 252 252 253 254 255 256 256 257 256 255 256 257 258 258 258 259 260 260 261 262 263 264 264 265 266 267 268
264 264 264 263 263 263 262 262 261 261 261 261 261 261 261 261 261 261 261 262 262 262 262 262 262 263 263 263 263 263 263 263 263 262 262 261 261 261 260 260 259 259 258 258 257 257 256 255 255 254 254 253 253 252 252 252 252 252 252 252 252 252 252 253 254 255 255 256 256 256 255 256 258 258 258 258 259 259 260 260 261 262 263 264 265 266 267 268
263 263 263 263 263 262 262 261 261 261 261 262 262 262 262 262 262 263 263 263 263 264 264 264 264 264 264 264 264 264 264 264 264 264 263 262 262 261 261 260 260 259 259 258 257 257 256 255 255 254 253 253 252 252 251 251 251 251 251 251 251 252 252 253 254 253 254 255 255 255 256 257 257 257 258 258 259 259 260 260 260 261 262 263 265 266 267 267
263 263 263 263 262 262 262 261 261 261 261 262 262 262 263 263 264 264 264 265 265 265 266 266 266 266 265 265 265 265 265 265 265 264 264 263 262 262 261 260 260 259 259 258 257 257 256 255 255 254 253 252 252 251 251 250 250 250 250 250 251 251 251 252 253 253 253 254 254 254 255 256 256 256 258 258 259 260 260 260 260 261 262 263 264 264 265 266
263 263 263 263 262 262 261 261 261 261 262 262 263 263 263 264 264 265 265 266 266 267 267 267 267 267 267 267 267 266 266 266 265 265 264 264 263 262 261 260 259 258 258 257 256 256 255 255 254 253 252 252 251 250 250 250 250 250 250 250 250 250 250 251 252 252 251 253 253 254 255 255 255 256 257 258 258 259 260 260 261 261 262 263 263 263 264 265
263 263 262 262 262 261 261 261 261 262 262 262 263 263 264 264 265 266 266 267 267 268 268 268 268 268 268 268 268 268 268 267 265 265 264 264 263 262 261 260 259 257 256 256 255 254 254 253 253 252 251 251 250 250 250 250 249 249 249 249 249 250 250 250 251 251 251 252 253 253 254 254 255 255 256 257 257 258 260 260 261 261 261 261 261 262 263 264
262 261 261 261 261 261 261 261 261 261 262 262 263 263 264 265 265 266 267 268 268 268 269 269 269 269 269 269 269 269 268 267 266 265 264 263 262 261 260 259 258 257 255 255 254 253 253 252 252 251 251 250 250 249 249 248 248 247 248 248 249 249 249 249 250 250 250 251 252 252 253 253 254 255 255 256 257 258 259 260 260 261 260 260 260 261 262 264
261 261 260 260 260 260 260 260 261 261 262 262 263 264 265 265 266 267 268 268 269 269 270 270 271 271 271 271 270 270 269 267 266 265 264 263 262 261 259 258 257 256 255 254 253 253 252 251 251 251 250 249 249 248 247 247 247 247 247 248 248 248 248 248 249 249 249 250 250 251 252 253 254 255 255 255 256 257 259 259 260 260 260 260 261 261 262 264
261 261 261 261 261 261 261 261 262 262 262 263 264 265 265 266 267 268 269 269 270 271 271 272 272 272 273 272 272 271 269 267 266 265 263 261 261 260 259 258 256 255 255 254 253 252 252 251 251 250 249 248 248 247 247 246 247 247 247 247 248 247 248 248 248 248 249 249 250 251 252 252 253 253 253 254 255 256 257 258 259 260 260 261 261 261 260 259
263 263 263 263 263 263 263 263 263 263 263 264 265 265 266 267 268 269 269 270 271 272 273 273 274 274 274 273 272 271 268 267 265 263 262 261 260 259 259 258 257 256 255 254 253 252 251 250 250 249 248 247 247 247 246 246 246 247 246 246 247 247 247 248 248 248 248 248 249 250 251 252 252 252 253 254 255 255 256 257 258 259 260 260 260 260 259 257
264 264 264 264 264 264 264 264 264 264 264 265 265 266 267 268 269 269 270 271 272 273 274 274 274 274 274 273 272 269 267 266 264 262 261 260 260 260 259 259 258 256 255 254 252 251 251 250 248 248 248 247 246 246 245 245 245 245 245 245 246 246 247 247 247 247 248 248 249 250 251 251 251 252 253 253 254 254 255 256 257 258 259 260 260 260 260 259
264 264 264 264 264 264 264 264 264 265 265 265 266 266 267 268 269 270 271 272 273 274 274 275 274 274 273 272 270 268 267 265 263 261 261 261 260 260 260 259 258 257 255 254 252 251 250 249 248 247 247 245 245 245 244 244 244 244 245 245 246 246 246 247 247 247 247 247 249 250 250 251 251 252 252 252 252 253 254 255 255 257 258 258 259 260 260 261
264 264 264 264 264 264 264 264 264 265 265 266 266 267 267 268 269 270 272 273 274 274 274 274 273 273 272 271 268 267 265 263 262 262 262 262 261 261 260 259 258 256 255 253 252 251 249 248 247 247 246 245 245 244 243 243 244 244 245 245 245 246 245 246 246 246 247 247 248 249 249 250 251 252 252 252 251 252 253 253 254 256 257 256 258 260 261 263
265 264 264 263 263 263 263 263 263 264 264 265 266 266 267 268 269 270 272 272 273 273 273 273 272 272 271 269 267 265 264 263 263 263 262 262 262 261 260 259 257 256 254 253 251 250 249 248 247 246 245 244 245 244 242 243 244 244 244 244 244 244 244 245 246 245 246 247 247 248 249 250 250 251 251 252 250 250 253 253 252 255 256 255 256 259 261 266
266 264 264 264 263 262 262 262 262 262 263 263 264 265 266 267 268 270 271 271 272 272 272 271 271 271 270 267 266 265 265 264 263 263 264 264 263 262 260 259 257 255 254 253 251 250 248 247 246 246 245 245 245 243 242 242 243 242 242 242 242 243 243 244 245 245 244 246 247 246 248 249 249 250 251 251 250 249 251 252 251 253 255 255 254 256 260 264
266 265 264 263 262 262 261 260 260 261 261 262 263 264 265 266 267 269 270 270 271 271 270 270 270 269 268 266 265 265 264 264 264 265 266 265 264 262 260 259 257 256 255 253 251 249 248 247 246 245 244 243 243 242 241 240 240 241 241 242 242 242 242 243 245 246 242 243 247 246 247 249 249 249 251 251 250 248 249 251 250 251 254 255 253 251 250 252
266 265 264 263 262 261 260 259 259 260 260 261 262 263 263 264 265 267 268 269 270 270 269 269 269 268 266 266 265 264 264 265 265 266 266 266 266 263 261 259 258 256 255 253 251 249 247 246 245 244 242 241 241 240 240 239 240 241 241 242 242 242 242 242 244 246 242 240 246 246 245 249 249 248 250 251 249 248 249 250 250 251 253 254 253 249 243 243
266 265 263 262 261 260 259 258 258 259 259 260 261 262 262 263 264 265 267 268 268 268 268 267 267 266 264 265 265 264 264 265 266 267 268 267 266 263 261 259 258 256 254 252 251 249 247 245 243 242 241 240 240 239 239 239 239 240 240 240 240 240 240 240 241 245 243 237 243 246 244 248 249 247 249 250 249 249 250 250 250 251 252 252 251 248 243 241
266 264 263 261 260 260 259 258 258 258 258 259 260 261 262 262 263 263 265 267 267 266 266 266 265 264 264 264 264 264 264 266 267 268 269 268 265 263 261 259 257 256 254 252 250 248 245 243 242 241 240 239 239 238 239 239 238 238 239 238 238 238 239 239 239 243 243 237 241 244 243 246 248 246 248 249 249 248 250 251 250 251 252 251 249 246 245 242
265 263 262 260 259 259 258 258 257 257 257 258 259 260 261 261 261 262 263 265 266 265 264 265 263 262 262 263 264 264 264 266 268 268 268 267 265 263 261 259 258 256 254 250 248 246 243 242 241 240 240 238 238 238 238 237 237 236 237 237 237 237 238 239 239 242 243 238 240 243 241 244 247 248 248 250 250 247 250 252 250 250 251 251 250 247 245 243
264 263 261 260 259 258 257 257 257 257 257 257 258 259 259 260 260 261 262 262 264 263 261 263 263 260 260 262 263 264 264 265 267 267 268 268 266 264 262 260 259 256 253 249 247 245 243 242 240 240 239 238 236 236 236 235 235 235 236 237 237 237 238 239 239 241 242 238 240 244 242 243 247 249 249 249 250 248 248 251 251 250 252 252 250 249 247 247
262 261 260 259 258 257 256 256 256 256 256 256 257 257 258 259 260 260 260 260 261 262 259 260 263 261 259 260 262 263 264 264 265 266 269 268 267 265 262 261 259 255 251 248 246 244 242 240 240 239 238 236 234 234 234 234 234 234 235 235 236 237 237 239 241 241 242 239 241 244 244 244 247 248 250 249 250 250 248 250 252 251 252 253 251 251 250 250
263 261 260 259 258 256 256 255 255 255 255 255 255 256 257 259 259 259 259 258 259 260 259 258 260 261 260 259 260 262 263 263 264 266 269 268 267 266 264 262 259 255 252 248 245 244 241 239 238 238 236 234 233 234 234 233 233 233 234 235 236 237 237 239 242 242 242 240 241 244 244 244 246 248 250 251 251 251 249 250 253 252 252 253 253 252 251 251
265 263 262 261 259 257 256 255 255 254 253 254 254 256 257 257 258 257 257 256 256 258 258 256 258 259 259 259 260 261 263 264 264 265 268 269 269 268 266 263 260 256 252 249 246 243 241 237 236 236 234 233 233 233 233 233 233 233 234 235 236 237 237 239 242 241 241 242 242 244 245 244 246 248 250 252 252 251 251 251 253 253 252 252 253 251 250 251
266 264 263 262 260 258 256 255 255 254 253 253 254 255 255 256 256 255 255 254 255 256 256 255 257 257 258 259 259 261 262 264 265 265 267 270 269 267 264 262 260 256 253 249 245 243 240 236 234 234 233 233 233 233 233 233 234 234 234 235 236 238 238 240 242 240 241 243 244 245 247 246 247 248 250 252 253 253 252 252 253 254 253 252 252 249 246 245
266 264 263 262 260 258 256 255 255 254 253 252 253 253 253 254 254 254 254 253 253 254 254 255 256 256 256 257 259 261 262 263 266 266 266 267 266 265 264 263 262 258 254 249 245 243 239 235 235 235 233 232 232 231 233 233 234 234 234 236 237 237 238 239 241 241 240 242 244 245 248 248 248 249 249 251 253 254 253 253 254 255 254 252 252 247 240 236
267 265 263 261 260 258 256 255 254 254 253 252 252 251 251 252 253 253 254 252 252 254 253 254 256 255 255 257 259 261 262 264 266 265 265 265 265 266 264 263 262 259 254 249 246 243 238 234 234 233 232 231 231 230 231 232 232 233 233 235 236 235 236 237 238 240 241 241 243 245 246 247 249 249 249 251 253 254 255 255 254 255 253 251 252 246 237 233
268 266 264 262 260 259 257 256 255 254 253 252 252 251 251 252 252 254 254 250 249 253 253 253 255 256 257 257 258 261 262 263 264 263 263 264 264 264 263 262 261 259 254 250 246 242 237 232 231 231 230 229 229 229 230 230 231 231 231 232 234 234 235 236 237 240 242 242 242 243 244 245 247 249 250 251 253 255 257 256 254 254 252 250 249 246 238 233
269 266 264 262 261 259 258 257 256 254 253 253 252 252 251 252 253 254 253 250 249 252 253 254 255 256 258 259 259 260 261 262 263 263 263 263 262 262 261 260 261 260 257 251 246 242 236 232 231 232 232 230 229 229 230 231 231 231 232 232 234 235 235 235 237 238 240 241 241 242 243 245 246 249 250 250 252 255 256 256 256 255 253 249 244 243 240 233
269 267 265 263 260 259 258 257 257 255 254 254 254 253 253 253 253 252 251 250 250 251 252 254 256 257 258 259 259 259 260 261 262 261 261 261 261 261 260 258 259 259 256 251 248 244 238 234 233 234 233 231 230 230 230 231 231 232 233 233 234 235 235 235 236 237 237 238 239 240 242 244 246 247 249 250 251 252 254 256 255 253 252 247 238 236 235 231
269 268 266 263 261 259 258 258 258 257 256 255 254 254 255 254 252 251 250 250 251 251 252 255 257 257 258 259 260 260 261 260 259 260 259 258 258 259 257 256 256 256 254 251 248 243 239 236 234 234 233 231 231 230 230 230 231 232 233 232 233 235 235 234 235 236 236 237 239 240 241 243 245 247 249 249 249 251 254 255 253 250 250 249 240 229 225 226
268 268 267 265 263 261 259 258 258 258 257 256 255 255 255 254 252 251 250 251 252 252 253 254 257 258 258 259 259 260 260 259 257 256 256 255 255 255 254 253 253 254 253 251 248 243 239 236 234 233 231 231 232 231 231 231 231 232 232 232 233 235 236 236 236 237 239 239 241 243 243 244 246 247 248 248 250 252 251 249 247 243 243 248 243 229 219 218
268 267 267 266 265 263 261 260 259 258 258 257 256 256 255 253 252 252 251 251 252 252 253 256 257 257 257 257 257 257 257 257 255 255 254 253 251 251 252 250 250 251 251 249 246 243 239 235 233 233 231 231 232 231 230 230 230 231 232 232 232 234 235 237 237 238 239 240 241 243 244 245 246 245 245 247 250 251 247 245 244 241 238 238 237 232 223 217
269 268 267 267 265 264 263 261 261 260 259 258 257 256 254 253 252 252 251 251 252 253 254 255 256 255 255 256 257 256 255 256 255 253 253 251 250 249 249 247 245 246 246 244 242 241 239 236 234 233 232 232 232 231 230 230 231 232 232 232 232 233 234 236 237 238 240 240 241 242 242 243 245 244 244 244 244 245 245 242 242 241 237 234 235 237 231 223
269 269 268 267 266 265 264 263 262 261 260 259 258 256 255 254 253 253 253 252 253 254 254 254 254 255 255 255 256 255 255 254 253 250 248 248 248 247 246 244 243 244 244 242 241 240 239 237 235 233 232 233 232 231 231 232 233 232 233 233 233 234 234 236 238 239 240 241 241 240 240 241 244 245 245 243 242 242 240 236 238 241 239 236 236 236 232 226
270 270 269 268 267 266 265 264 263 262 261 259 258 257 256 255 254 253 253 253 253 253 254 254 253 253 253 253 254 253 251 249 248 247 245 244 244 244 245 243 241 242 242 241 240 239 237 236 235 232 231 232 232 232 231 232 233 232 233 234 235 235 236 236 237 238 239 241 242 241 240 240 242 243 242 242 240 239 237 237 240 241 237 234 231 228 226 221
271 270 270 269 269 268 266 265 264 263 262 261 259 257 256 256 255 254 254 254 253 252 252 252 252 251 251 251 251 251 249 246 244 244 243 243 242 242 244 243 240 240 240 239 239 238 236 234 234 233 232 233 232 232 232 232 233 233 232 232 233 234 235 236 237 239 240 241 243 244 242 240 241 241 240 240 240 240 238 236 236 235 233 232 229 225 224 218
272 271 271 270 270 269 268 266 265 264 263 262 260 259 257 256 256 255 254 253 253 250 250 250 251 251 250 249 249 249 247 243 241 240 240 240 239 238 241 242 240 237 237 237 236 236 234 233 234 233 233 234 232 232 232 231 232 233 231 231 232 233 234 235 236 238 239 239 241 243 243 241 241 241 239 238 239 241 238 232 229 227 225 223 220 222 229 228
274 273 272 271 271 271 270 269 268 266 265 264 263 261 259 257 256 255 254 253 252 250 248 249 249 249 247 246 246 246 243 241 240 238 234 233 234 232 233 236 236 234 235 235 234 232 231 232 235 234 233 235 235 233 234 233 233 234 233 233 234 235 235 235 236 237 239 240 241 243 243 241 240 241 239 237 238 238 233 231 231 226 222 218 214 211 216 220
277 276 274 274 273 272 271 271 270 268 267 266 265 262 260 258 256 255 253 252 251 249 248 248 248 247 245 243 243 243 239 236 236 234 232 232 233 228 227 232 235 233 233 234 234 233 230 229 233 234 233 235 236 235 235 236 235 235 235 235 236 237 236 236 236 237 239 241 242 243 244 243 243 243 240 238 239 237 233 234 237 234 228 223 220 216 215 215
280 280 279 277 276 274 273 271 270 270 268 266 264 262 260 258 255 254 253 251 250 248 246 246 246 244 242 241 242 241 238 234 232 231 231 233 233 230 228 231 232 232 233 235 236 235 231 228 228 230 230 232 235 235 236 237 235 233 233 234 235 236 237 237 237 237 238 240 243 244 245 245 245 245 243 241 241 240 235 232 236 238 234 230 229 227 225 223
283 283 281 280 278 277 275 273 271 270 268 266 264 262 259 256 254 252 251 250 249 247 245 243 243 242 240 240 241 241 239 236 233 231 230 230 230 231 230 230 230 230 232 235 235 233 229 226 225 225 225 229 233 234 235 236 235 234 233 233 234 235 237 237 238 238 238 240 243 246 248 249 248 247 246 244 244 244 239 234 233 236 238 237 236 235 235 233
285 285 284 283 282 280 279 277 275 273 270 267 264 262 259 255 253 250 248 247 246 245 243 241 241 240 238 237 238 238 236 234 232 230 229 228 226 227 228 227 228 228 228 229 232 231 229 227 224 222 224 228 231 233 236 237 237 236 235 234 233 233 234 237 238 239 239 240 242 244 247 248 249 249 248 245 244 243 242 239 237 236 237 238 238 239 240 241
289 289 290 290 289 287 285 283 281 278 275 272 268 264 259 255 252 250 247 246 245 244 243 241 239 238 236 234 234 235 234 232 229 226 225 224 223 224 225 225 226 228 228 228 230 232 231 229 226 223 223 226 228 231 235 237 238 238 237 237 236 234 233 236 239 239 239 240 241 242 244 247 250 251 250 248 245 243 242 242 242 241 239 240 241 242 243 244
295 295 295 295 294 292 289 287 284 280 276 274 271 267 262 257 253 251 248 245 244 243 242 241 239 236 233 232 232 232 232 229 227 226 223 223 223 224 225 226 226 228 230 230 230 232 234 233 229 225 224 223 225 228 232 235 237 237 236 236 238 237 235 235 237 239 240 241 240 241 243 246 248 250 250 250 250 249 247 246 246 245 244 244 245 246 246 247
297 298 298 298 297 295 294 292 288 283 277 273 271 268 264 260 256 254 251 246 243 241 238 236 235 233 232 231 229 229 230 229 228 228 226 224 224 224 225 227 227 227 229 231 231 231 233 234 233 230 227 225 225 228 229 231 234 236 235 236 238 239 238 236 236 237 240 241 242 242 242 242 244 246 248 248 250 253 253 251 250 249 248 248 248 248 248 249
300 302 303 302 302 300 297 296 292 287 281 276 272 268 264 260 255 251 249 246 242 239 236 235 233 229 229 229 228 226 227 227 226 227 227 225 224 223 223 224 226 227 228 231 231 231 232 234 234 234 232 229 228 230 230 230 232 235 235 236 238 239 239 239 238 237 238 238 240 242 243 242 242 245 247 247 248 251 254 255 255 253 252 251 251 250 251 251
305 307 307 306 304 303 301 299 296 290 285 280 276 271 266 261 255 249 245 243 241 237 233 233 232 228 226 226 224 221 221 222 221 221 224 224 224 223 222 222 225 227 228 229 232 232 232 232 233 235 236 234 232 232 233 233 234 235 236 237 239 239 238 237 237 236 237 237 237 240 243 244 245 246 247 247 246 247 249 252 254 255 255 254 254 253 252 252
310 311 312 311 310 308 306 305 302 297 291 286 280 275 268 261 256 250 244 240 240 236 231 229 229 227 225 224 221 218 218 220 219 219 221 223 223 223 223 222 224 226 228 228 230 231 231 231 231 233 235 236 235 235 235 236 236 237 238 238 240 241 240 238 236 235 235 236 237 239 242 244 245 245 246 246 246 246 248 249 251 253 254 254 254 254 254 254
Height
10660 10660 10661 10662 10663 10663 10664 10665 10666 10667 10668 10668 10669 10670 10671 10671 10672 10673 10674 10675 10676 10677 10677 10678 10679 10681 10682 10683 10685 10686 10688 10690 10692 10694 10695 10696 10698 10700 10701 10703 10704 10706 10707 10707 10708 10710 10711 10712 10714 10717 10720 10723 10725 10727 10729 10731 10734 10737 10742 10743 10745 10746 10744 10745 10742 10740 10743 10743 10761 10775 10775 10769 10757 10765 10769 10764 10767 10767 10770 10773 10780 10783 10779 10780 10778 10779 10784 10787
10652 10653 10654 10655 10655 10656 10657 10658 10659 10660 10661 10662 10662 10663 10664 10664 10665 10666 10667 10668 10669 10670 10671 10672 10672 10674 10675 10676 10677 10679 10681 10683 10685 10687 10686 10687 10690 10692 10693 10695 10697 10697 10698 10699 10700 10702 10703 10704 10706 10709 10712 10715 10716 10718 10721 10722 10726 10730 10733 10735 10737 10737 10733 10734 10731 10732 10741 10747 10757 10765 10763 10752 10746 10760 10763 10758 10761 10762 10763 10768 10774 10772 10771 10775 10771 10774 10779 10781
10646 10646 10647 10648 10648 10649 10650 10651 10652 10653 10654 10655 10655 10656 10656 10657 10658 10659 10660 10661 10662 10663 10664 10665 10665 10667 10668 10669 10670 10672 10674 10676 10679 10678 10676 10680 10682 10683 10685 10686 10688 10689 10690 10691 10691 10693 10694 10696 10698 10701 10704 10706 10708 10710 10712 10714 10718 10721 10723 10728 10727 10725 10723 10722 10723 10729 10741 10746 10747 10752 10751 10740 10741 10754 10755 10753 10755 10756 10757 10762 10765 10764 10766 10766 10767 10772 10772 10775
10639 10640 10640 10641 10642 10642 10643 10644 10645 10646 10647 10647 10648 10648 10649 10650 10651 10652 10653 10654 10654 10655 10657 10657 10658 10660 10660 10662 10663 10664 10666 10669 10672 10667 10666 10672 10673 10674 10676 10677 10679 10680 10681 10682 10683 10684 10685 10687 10689 10692 10695 10698 10699 10701 10704 10707 10709 10710 10715 10719 10716 10714 10715 10713 10720 10730 10736 10738 10738 10741 10737 10731 10739 10747 10747 10746 10747 10750 10752 10756 10759 10757 10759 10759 10763 10767 10767 10771
10633 10633 10634 10634 10635 10636 10637 10637 10638 10639 10639 10640 10641 10641 10642 10643 10644 10645 10645 10646 10647 10648 10649 10650 10651 10652 10653 10654 10655 10656 10658 10662 10664 10657 10658 10664 10663 10665 10667 10668 10669 10670 10671 10673 10673 10674 10676 10678 10680 10682 10686 10688 10690 10693 10696 10697 10699 10701 10707 10709 10705 10707 10708 10709 10719 10726 10727 10730 10729 10727 10724 10728 10738 10738 10736 10739 10740 10743 10745 10751 10754 10752 10753 10754 10757 10761 10763 10767
10627 10627 10627 10628 10629 10629 10630 10631 10631 10632 10632 10633 10634 10634 10635 10635 10636 10637 10638 10639 10640 10640 10642 10643 10644 10645 10646 10647 10647 10648 10649 10655 10655 10646 10649 10655 10654 10655 10657 10658 10660 10660 10662 10662 10663 10664 10666 10667 10670 10673 10676 10678 10681 10684 10685 10687 10690 10694 10698 10697 10696 10699 10702 10705 10712 10718 10722 10720 10718 10717 10719 10725 10729 10727 10728 10733 10734 10735 10738 10744 10749 10747 10747 10749 10753 10756 10759 10762
10620 10621 10621 10622 10622 10623 10623 10624 10624 10625 10625 10626 10626 10627 10628 10628 10629 10630 10631 10632 10633 10633 10634 10635 10636 10637 10638 10638 10639 10640 10641 10646 10645 10636 10640 10645 10643 10645 10646 10648 10649 10650 10651 10651 10653 10654 10655 10658 10661 10662 10665 10669 10671 10674 10675 10677 10682 10686 10688 10686 10688 10691 10696 10700 10702 10714 10716 10707 10707 10712 10714 10717 10719 10720 10722 10726 10727 10728 10732 10737 10742 10741 10741 10745 10748 10751 10754 10756
10614 10614 10614 10615 10615 10616 10617 10617 10618 10618 10618 10619 10619 10620 10620 10621 10621 10622 10623 10624 10625 10626 10626 10627 10628 10628 10629 10630 10630 10631 10633 10637 10633 10628 10632 10633 10633 10635 10636 10638 10639 10641 10641 10642 10643 10644 10646 10649 10650 10652 10655 10658 10661 10664 10666 10669 10674 10677 10676 10676 10679 10682 10690 10694 10695 10707 10706 10697 10702 10706 10706 10709 10711 10714 10717 10718 10719 10721 10725 10731 10734 10735 10738 10741 10743 10745 10749 10750
10607 10607 10608 10608 10609 10609 10610 10610 10611 10611 10611 10611 10612 10612 10613 10614 10614 10615 10616 10617 10618 10618 10618 10619 10619 10620 10620 10621 10622 10623 10626 10625 10621 10620 10623 10622 10623 10625 10626 10628 10629 10631 10632 10632 10633 10634 10637 10638 10639 10642 10645 10649 10652 10655 10658 10661 10666 10667 10665 10666 10672 10676 10684 10687 10689 10697 10695 10692 10697 10697 10698 10702 10703 10709 10711 10709 10711 10716 10720 10724 10727 10728 10732 10736 10738 10741 10744 10745
10600 10600 10601 10601 10602 10602 10603 10603 10604 10604 10604 10604 10604 10605 10605 10606 10607 10608 10609 10610 10610 10610 10610 10610 10611 10612 10612 10613 10613 10615 10617 10614 10611 10612 10614 10614 10614 10615 10617 10618 10620 10621 10622 10623 10624 10626 10627 10628 10630 10633 10637 10640 10643 10647 10649 10652 10655 10655 10656 10659 10666 10670 10675 10678 10682 10687 10686 10687 10689 10688 10691 10694 10697 10703 10703 10701 10706 10712 10713 10716 10721 10722 10724 10730 10735 10738 10740 10740
10593 10594 10594 10594 10594 10595 10596 10596 10596 10597 10597 10597 10597 10598 10598 10599 10600 10601 10602 10602 10602 10602 10602 10602 10603 10604 10604 10604 10604 10607 10607 10603 10603 10604 10604 10605 10604 10606 10608 10609 10611 10612 10614 10615 10616 10618 10618 10620 10623 10625 10629 10631 10634 10638 10639 10643 10644 10646 10650 10653 10658 10662 10666 10670 10675 10678 10678 10680 10681 10680 10684 10688 10692 10696 10695 10694 10700 10708 10707 10709 10714 10715 10718 10724 10730 10734 10736 10736
10586 10587 10587 10587 10588 10588 10589 10589 10589 10590 10590 10590 10591 10591 10591 10592 10593 10594 10594 10594 10594 10594 10595 10595 10595 10596 10597 10596 10595 10598 10597 10594 10596 10595 10595 10597 10596 10598 10600 10601 10603 10604 10606 10607 10608 10610 10610 10613 10616 10617 10620 10622 10627 10629 10631 10636 10638 10639 10644 10646 10650 10655 10658 10664 10668 10669 10672 10673 10673 10675 10678 10683 10687 10686 10686 10688 10696 10704 10701 10702 10707 10708 10712 10718 10724 10729 10731 10732
10579 10579 10580 10580 10580 10581 10581 10582 10582 10583 10583 10583 10584 10584 10584 10585 10586 10586 10587 10587 10587 10587 10587 10588 10588 10589 10589 10587 10588 10589 10588 10587 10588 10587 10587 10589 10589 10590 10592 10594 10595 10597 10599 10599 10601 10602 10603 10606 10608 10608 10610 10616 10620 10620 10625 10631 10631 10632 10636 10638 10643 10648 10653 10657 10660 10662 10665 10667 10667 10669 10673 10677 10678 10677 10680 10685 10692 10697 10694 10697 10702 10702 10706 10712 10718 10723 10725 10727
10571 10572 10572 10573 10573 10573 10574 10574 10575 10575 10576 10576 10576 10577 10577 10578 10578 10579 10579 10579 10580 10580 10580 10580 10580 10581 10580 10580 10581 10580 10580 10581 10580 10579 10580 10581 10583 10584 10586 10587 10588 10590 10591 10592 10593 10594 10596 10599 10600 10600 10604 10611 10611 10611 10621 10624 10622 10624 10628 10633 10637 10642 10648 10650 10651 10655 10658 10661 10661 10664 10668 10670 10670 10670 10675 10680 10686 10690 10689 10694 10697 10695 10701 10707 10711 10717 10719 10722
10563 10563 10564 10565 10565 10565 10566 10566 10567 10567 10568 10568 10569 10569 10570 10571 10571 10572 10572 10572 10572 10573 10573 10573 10573 10574 10573 10574 10574 10572 10574 10575 10571 10572 10574 10575 10577 10578 10579 10580 10581 10582 10584 10585 10586 10588 10589 10590 10593 10594 10598 10603 10602 10606 10616 10616 10614 10617 10622 10629 10632 10637 10642 10641 10644 10648 10651 10654 10655 10659 10663 10663 10663 10665 10669 10674 10680 10684 10685 10689 10691 10690 10696 10702 10706 10711 10715 10717
10554 10555 10555 10556 10557 10557 10558 10558 10559 10559 10560 10560 10561 10562 10562 10563 10564 10564 10565 10565 10565 10565 10566 10566 10566 10567 10567 10567 10567 10566 10568 10567 10565 10566 10568 10569 10571 10572 10572 10573 10574 10575 10576 10578 10579 10581 10582 10583 10586 10587 10592 10596 10596 10602 10609 10607 10609 10613 10618 10624 10627 10631 10635 10634 10637 10642 10645 10649 10651 10654 10657 10657 10657 10659 10663 10667 10674 10679 10680 10684 10686 10685 10690 10697 10702 10706 10711 10714
10545 10545 10546 10547 10548 10548 10549 10550 10550 10551 10552 10552 10553 10554 10554 10556 10557 10557 10558 10558 10558 10558 10559 10559 10559 10561 10562 10561 10560 10561 10562 10560 10559 10561 10562 10563 10565 10566 10566 10565 10567 10568 10569 10571 10573 10574 10575 10577 10579 10581 10586 10590 10591 10597 10602 10602 10605 10609 10613 10618 10620 10623 10627 10629 10630 10635 10642 10643 10645 10649 10650 10651 10651 10652 10657 10660 10668 10675 10674 10677 10682 10681 10683 10693 10700 10703 10706 10708
10535 10536 10536 10537 10538 10539 10540 10541 10541 10543 10543 10544 10544 10545 10547 10549 10550 10551 10551 10550 10551 10552 10552 10553 10553 10555 10556 10554 10555 10556 10556 10553 10553 10555 10556 10556 10559 10560 10559 10559 10561 10562 10563 10564 10566 10567 10569 10571 10573 10577 10581 10584 10586 10591 10596 10598 10599 10600 10605 10610 10613 10616 10621 10623 10622 10629 10638 10636 10637 10644 10645 10644 10645 10648 10651 10652 10662 10671 10668 10670 10677 10678 10677 10687 10697 10702 10705 10705
10525 10526 10527 10527 10528 10529 10530 10532 10533 10534 10535 10535 10536 10537 10539 10541 10543 10545 10544 10543 10545 10545 10546 10546 10547 10550 10550 10548 10550 10551 10549 10547 10548 10551 10550 10550 10553 10554 10553 10554 10555 10555 10557 10558 10558 10561 10563 10565 10569 10572 10576 10578 10580 10584 10589 10590 10589 10593 10599 10604 10608 10611 10615 10618 10617 10621 10631 10632 10631 10639 10641 10635 10638 10644 10644 10646 10657 10664 10662 10664 10671 10674 10675 10681 10692 10700 10705 10706
10515 10516 10517 10518 10519 10520 10521 10523 10524 10525 10526 10527 10528 10529 10531 10534 10536 10538 10537 10536 10539 10539 10539 10540 10541 10544 10544 10543 10544 10544 10543 10541 10543 10546 10545 10545 10547 10548 10547 10548 10549 10550 10550 10551 10553 10555 10557 10560 10564 10566 10568 10570 10573 10578 10581 10581 10584 10590 10595 10600 10602 10607 10610 10612 10613 10612 10621 10630 10627 10632 10636 10628 10633 10640 10638 10641 10651 10655 10655 10660 10665 10669 10672 10676 10687 10694 10698 10701
10506 10507 10508 10509 10510 10511 10512 10514 10515 10517 10518 10519 10520 10521 10524 10526 10529 10532 10532 10530 10532 10533 10533 10534 10535 10537 10539 10538 10537 10538 10538 10537 10539 10540 10539 10541 10542 10541 10542 10542 10543 10543 10544 10546 10548 10550 10553 10555 10558 10559 10561 10565 10568 10572 10574 10576 10582 10586 10590 10594 10596 10601 10602 10604 10608 10603 10612 10627 10623 10624 10630 10623 10626 10634 10632 10635 10644 10648 10649 10655 10661 10664 10667 10672 10681 10687 10689 10693
10497 10498 10499 10500 10501 10503 10503 10505 10507 10509 10510 10512 10513 10514 10516 10519 10521 10525 10526 10524 10525 10528 10528 10528 10530 10531 10533 10533 10531 10532 10533 10532 10534 10535 10534 10535 10536 10536 10536 10536 10537 10537 10539 10542 10543 10545 10547 10549 10551 10552 10556 10560 10563 10566 10569 10573 10578 10581 10583 10586 10589 10594 10595 10598 10603 10597 10604 10623 10620 10617 10622 10618 10619 10627 10628 10631 10638 10642 10644 10649 10656 10659 10660 10666 10675 10681 10683 10685
10489 10489 10490 10492 10493 10494 10495 10497 10499 10501 10503 10504 10505 10507 10509 10511 10514 10517 10521 10519 10517 10522 10523 10521 10523 10526 10527 10527 10526 10526 10528 10528 10530 10529 10528 10529 10530 10531 10530 10531 10532 10533 10535 10536 10537 10539 10542 10543 10545 10548 10551 10556 10559 10561 10565 10568 10572 10574 10576 10579 10584 10587 10589 10594 10596 10591 10601 10618 10613 10608 10613 10612 10614 10620 10624 10627 10631 10636 10641 10643 10649 10653 10654 10661 10670 10675 10676 10677
10481 10482 10482 10484 10485 10487 10487 10489 10491 10493 10495 10497 10498 10500 10501 10504 10508 10511 10514 10514 10511 10514 10519 10516 10515 10520 10522 10522 10521 10521 10524 10525 10524 10524 10523 10524 10526 10526 10525 10526 10528 10529 10530 10531 10532 10534 10536 10538 10541 10544 10547 10552 10555 10556 10559 10562 10566 10569 10571 10576 10579 10581 10585 10588 10587 10588 10600 10611 10605 10598 10605 10611 10612 10615 10618 10621 10623 10630 10638 10637 10641 10647 10649 10656 10665 10668 10668 10670
10474 10474 10475 10477 10478 10479 10480 10481 10484 10486 10488 10491 10491 10492 10495 10497 10501 10504 10507 10509 10506 10507 10514 10512 10509 10513 10517 10517 10516 10516 10519 10519 10518 10519 10518 10519 10521 10520 10520 10522 10523 10523 10525 10526 10528 10529 10531 10534 10537 10540 10544 10547 10549 10550 10553 10557 10560 10564 10567 10571 10573 10575 10581 10581 10580 10587 10597 10603 10597 10592 10601 10608 10608 10609 10611 10614 10618 10625 10633 10633 10636 10642 10644 10651 10658 10660 10661 10663
10467 10468 10469 10470 10471 10472 10473 10474 10476 10479 10482 10484 10483 10486 10489 10491 10494 10497 10500 10503 10501 10502 10508 10507 10504 10507 10510 10512 10512 10512 10514 10513 10514 10516 10514 10513 10516 10516 10516 10518 10518 10519 10521 10522 10524 10525 10527 10531 10533 10536 10539 10541 10543 10545 10549 10552 10556 10560 10563 10566 10568 10571 10576 10577 10578 10586 10591 10592 10589 10588 10597 10603 10602 10604 10605 10607 10614 10620 10626 10629 10631 10635 10640 10648 10651 10651 10653 10655
10462 10462 10463 10464 10465 10466 10467 10468 10469 10472 10476 10476 10477 10481 10483 10485 10488 10491 10494 10496 10497 10498 10501 10500 10499 10501 10504 10506 10507 10508 10509 10508 10509 10512 10509 10509 10512 10512 10512 10513 10514 10515 10516 10518 10520 10521 10523 10527 10529 10531 10533 10535 10538 10541 10545 10548 10552 10556 10559 10561 10564 10567 10572 10574 10575 10582 10583 10582 10583 10586 10592 10596 10597 10599 10599 10602 10608 10614 10619 10625 10626 10629 10637 10643 10643 10644 10646 10648
10457 10457 10458 10459 10460 10461 10461 10462 10463 10466 10469 10470 10472 10476 10477 10479 10482 10485 10487 10491 10493 10492 10493 10494 10494 10496 10499 10501 10502 10503 10504 10503 10505 10507 10506 10506 10507 10506 10507 10508 10509 10511 10512 10514 10516 10516 10519 10523 10524 10526 10529 10531 10534 10537 10541 10545 10549 10551 10554 10557 10560 10564 10569 10570 10571 10576 10577 10575 10580 10584 10586 10590 10593 10593 10595 10597 10602 10608 10613 10618 10621 10624 10633 10637 10635 10639 10641 10643
10452 10452 10453 10454 10454 10455 10456 10457 10457 10460 10463 10464 10467 10470 10471 10473 10476 10478 10481 10487 10487 10483 10486 10489 10488 10491 10494 10495 10496 10498 10499 10499 10500 10502 10501 10501 10502 10502 10503 10504 10505 10507 10508 10510 10511 10512 10516 10518 10520 10523 10526 10527 10530 10534 10538 10541 10544 10546 10551 10554 10557 10561 10563 10564 10566 10569 10570 10570 10577 10581 10581 10585 10587 10587 10591 10594 10597 10603 10607 10613 10616 10619 10627 10630 10628 10632 10636 10639
10447 10448 10449 10450 10450 10451 10452 10452 10452 10455 10457 10459 10461 10463 10466 10467 10470 10472 10477 10482 10479 10474 10480 10484 10481 10485 10489 10490 10492 10493 10493 10494 10496 10497 10496 10497 10498 10498 10499 10500 10501 10503 10504 10505 10507 10509 10512 10515 10517 10519 10520 10522 10526 10531 10534 10536 10538 10543 10548 10549 10551 10555 10557 10559 10561 10562 10563 10568 10574 10576 10576 10580 10581 10581 10586 10591 10593 10597 10602 10608 10611 10614 10620 10623 10622 10625 10630 10634
10443 10443 10444 10445 10446 10446 10447 10447 10448 10450 10451 10453 10455 10457 10460 10462 10464 10469 10472 10473 10469 10467 10475 10477 10475 10480 10483 10484 10488 10487 10488 10490 10491 10491 10491 10492 10494 10494 10495 10496 10497 10499 10500 10501 10503 10505 10508 10511 10511 10511 10514 10519 10524 10527 10529 10530 10535 10540 10542 10543 10546 10550 10552 10555 10557 10558 10560 10566 10570 10570 10571 10575 10575 10577 10583 10587 10590 10593 10597 10601 10605 10609 10614 10616 10617 10618 10624 10630
10438 10439 10439 10441 10441 10442 10443 10442 10443 10445 10446 10447 10450 10452 10455 10457 10461 10465 10464 10462 10461 10463 10469 10469 10470 10476 10477 10479 10482 10481 10483 10485 10485 10486 10487 10488 10490 10490 10491 10492 10493 10495 10496 10497 10499 10502 10504 10505 10506 10507 10512 10517 10520 10522 10524 10528 10533 10535 10537 10540 10543 10545 10548 10551 10553 10555 10558 10562 10563 10564 10567 10570 10571 10574 10579 10584 10587 10589 10590 10594 10600 10605 10607 10609 10611 10612 10618 10624
10434 10434 10434 10436 10436 10437 10438 10437 10437 10439 10440 10442 10444 10446 10449 10454 10457 10457 10455 10454 10454 10457 10462 10463 10466 10471 10472 10473 10476 10476 10479 10480 10480 10481 10483 10485 10485 10486 10487 10488 10490 10491 10491 10492 10495 10499 10501 10501 10503 10506 10511 10514 10516 10518 10521 10525 10529 10530 10533 10537 10539 10540 10544 10548 10550 10551 10554 10555 10557 10559 10563 10565 10567 10571 10575 10580 10583 10583 10585 10591 10596 10599 10600 10602 10607 10610 10614 10616
10429 10429 10429 10430 10431 10432 10433 10432 10432 10433 10435 10437 10439 10441 10445 10449 10450 10447 10447 10448 10447 10452 10456 10457 10461 10465 10466 10468 10470 10471 10473 10475 10475 10477 10479 10481 10481 10482 10483 10484 10485 10486 10486 10489 10492 10495 10496 10498 10501 10503 10507 10510 10511 10514 10518 10522 10525 10527 10529 10533 10534 10535 10539 10543 10544 10545 10548 10550 10553 10556 10559 10560 10562 10569 10574 10576 10577 10578 10583 10587 10590 10593 10595 10597 10603 10608 10609 10609
10424 10423 10423 10424 10425 10426 10427 10427 10427 10427 10429 10431 10433 10437 10440 10441 10440 10440 10441 10441 10441 10446 10449 10451 10455 10458 10460 10462 10464 10466 10467 10468 10471 10472 10474 10476 10477 10478 10478 10479 10481 10481 10482 10486 10488 10490 10492 10495 10497 10499 10502 10505 10507 10511 10516 10519 10522 10523 10525 10528 10530 10531 10535 10538 10539 10541 10544 10548 10551 10553 10556 10557 10560 10566 10570 10570 10572 10576 10580 10581 10584 10589 10593 10595 10598 10601 10604 10606
10419 10419 10418 10419 10419 10420 10421 10421 10421 10421 10423 10425 10428 10432 10433 10432 10432 10433 10435 10435 10435 10439 10443 10447 10450 10451 10453 10455 10458 10461 10461 10462 10465 10468 10469 10471 10472 10473 10473 10475 10477 10477 10479 10482 10484 10485 10488 10490 10492 10495 10498 10501 10504 10508 10512 10515 10516 10517 10521 10524 10526 10528 10531 10533 10535 10538 10541 10544 10547 10549 10553 10554 10556 10561 10564 10565 10569 10573 10573 10575 10580 10586 10591 10593 10592 10593 10599 10603
10414 10414 10413 10413 10413 10414 10415 10415 10415 10415 10417 10419 10422 10424 10424 10424 10426 10426 10428 10428 10428 10433 10439 10441 10441 10442 10446 10449 10451 10454 10455 10458 10461 10463 10464 10465 10467 10468 10468 10470 10471 10472 10475 10477 10479 10481 10483 10486 10488 10491 10495 10497 10499 10504 10508 10509 10511 10514 10517 10519 10521 10524 10527 10528 10530 10534 10537 10541 10543 10545 10548 10549 10551 10556 10560 10562 10566 10568 10569 10571 10575 10581 10586 10588 10588 10589 10595 10598
10409 10408 10408 10407 10407 10408 10408 10408 10408 10408 10410 10412 10414 10415 10415 10417 10419 10419 10420 10421 10424 10428 10432 10433 10433 10435 10440 10442 10444 10446 10450 10454 10457 10458 10459 10459 10462 10463 10463 10465 10467 10468 10470 10473 10475 10477 10480 10482 10484 10487 10490 10492 10495 10500 10504 10505 10507 10511 10513 10514 10517 10520 10522 10524 10527 10530 10533 10536 10538 10541 10543 10544 10547 10552 10555 10559 10562 10563 10566 10569 10572 10577 10581 10583 10584 10586 10590 10593
10403 10403 10402 10401 10400 10401 10401 10401 10401 10401 10403 10405 10406 10407 10408 10409 10411 10412 10413 10414 10418 10422 10424 10425 10426 10429 10432 10435 10437 10439 10444 10449 10450 10451 10452 10454 10457 10458 10459 10461 10463 10464 10466 10469 10471 10473 10476 10478 10480 10483 10486 10488 10492 10497 10499 10501 10503 10506 10508 10510 10514 10516 10518 10521 10523 10525 10528 10531 10533 10534 10537 10540 10544 10547 10550 10554 10556 10557 10561 10567 10570 10573 10576 10578 10580 10582 10585 10589
10398 10397 10396 10394 10393 10393 10394 10394 10393 10393 10395 10396 10398 10399 10400 10402 10403 10405 10405 10406 10410 10415 10416 10415 10417 10421 10425 10429 10430 10431 10437 10443 10444 10445 10447 10449 10451 10453 10454 10456 10458 10460 10462 10465 10467 10469 10472 10474 10476 10479 10482 10485 10489 10492 10494 10496 10498 10500 10503 10506 10508 10510 10513 10516 10518 10521 10524 10526 10527 10527 10531 10537 10539 10540 10545 10548 10549 10551 10559 10566 10570 10572 10573 10573 10574 10577 10580 10584
10391 10391 10389 10388 10387 10385 10385 10386 10385 10386 10387 10387 10389 10391 10392 10394 10395 10396 10397 10398 10402 10406 10407 10406 10409 10414 10419 10423 10423 10424 10431 10437 10437 10439 10443 10444 10446 10449 10450 10450 10453 10456 10458 10461 10463 10465 10468 10470 10471 10475 10478 10481 10484 10486 10488 10491 10492 10494 10498 10501 10503 10505 10508 10511 10513 10516 10518 10519 10521 10522 10526 10531 10532 10533 10538 10542 10545 10549 10555 10562 10566 10569 10570 10569 10569 10572 10575 10578
10384 10385 10383 10381 10380 10378 10377 10378 10377 10377 10378 10378 10380 10382 10383 10386 10387 10386 10388 10390 10393 10397 10398 10399 10402 10407 10412 10415 10414 10417 10425 10430 10431 10434 10437 10436 10439 10445 10445 10444 10447 10451 10454 10457 10458 10459 10464 10467 10468 10472 10475 10476 10479 10481 10483 10485 10487 10489 10493 10496 10498 10500 10503 10507 10509 10510 10512 10513 10516 10517 10518 10522 10526 10528 10532 10538 10543 10545 10548 10552 10556 10559 10561 10562 10563 10567 10569 10572
10377 10377 10377 10375 10373 10372 10370 10370 10369 10369 10370 10371 10372 10373 10374 10377 10378 10377 10379 10382 10383 10386 10389 10391 10395 10400 10404 10406 10405 10410 10418 10422 10423 10426 10428 10429 10434 10440 10440 10440 10444 10447 10450 10452 10452 10455 10461 10465 10466 10468 10470 10472 10474 10476 10478 10480 10483 10486 10489 10491 10493 10495 10498 10501 10503 10503 10506 10508 10510 10510 10511 10515 10519 10521 10528 10535 10538 10539 10542 10545 10545 10547 10552 10554 10556 10559 10562 10565
10370 10369 10369 10367 10366 10364 10363 10363 10361 10361 10362 10363 10363 10363 10365 10367 10368 10368 10370 10372 10373 10377 10380 10384 10388 10391 10395 10397 10398 10403 10409 10414 10416 10419 10422 10426 10431 10434 10435 10437 10440 10443 10446 10448 10450 10454 10458 10461 10462 10464 10466 10468 10469 10471 10474 10475 10477 10480 10483 10485 10487 10489 10492 10494 10495 10497 10500 10503 10504 10504 10505 10509 10512 10515 10523 10530 10532 10533 10538 10540 10538 10538 10542 10545 10548 10550 10554 10557
10364 10362 10361 10359 10358 10357 10355 10355 10355 10354 10354 10354 10354 10354 10356 10357 10358 10358 10360 10361 10363 10366 10371 10376 10379 10382 10388 10392 10393 10397 10404 10408 10410 10413 10417 10422 10426 10428 10430 10433 10436 10439 10443 10445 10446 10450 10452 10454 10457 10460 10462 10464 10465 10468 10469 10470 10472 10475 10477 10480 10482 10484 10486 10487 10488 10491 10496 10499 10499 10499 10501 10504 10506 10510 10516 10521 10524 10526 10530 10532 10531 10531 10534 10537 10540 10542 10546 10548
10359 10356 10354 10353 10352 10350 10349 10348 10348 10347 10346 10346 10346 10347 10347 10348 10348 10349 10350 10352 10353 10356 10362 10367 10369 10374 10381 10385 10386 10391 10396 10400 10404 10408 10412 10416 10419 10421 10424 10428 10431 10434 10437 10438 10440 10444 10446 10448 10452 10456 10457 10459 10462 10464 10465 10466 10469 10471 10472 10475 10476 10478 10480 10480 10483 10487 10491 10493 10495 10496 10497 10498 10499 10503 10509 10513 10516 10518 10520 10522 10523 10524 10526 10529 10532 10535 10538 10540
10354 10351 10349 10347 10346 10344 10342 10342 10341 10340 10339 10338 10338 10339 10339 10339 10339 10339 10342 10344 10346 10349 10353 10357 10361 10367 10373 10376 10379 10384 10388 10393 10398 10401 10404 10408 10410 10412 10417 10421 10424 10427 10430 10432 10435 10438 10440 10443 10448 10450 10452 10455 10458 10460 10461 10463 10465 10465 10468 10470 10470 10472 10475 10477 10480 10483 10484 10487 10491 10492 10492 10492 10494 10498 10502 10505 10508 10510 10511 10513 10514 10515 10518 10521 10525 10529 10531 10532
10349 10347 10344 10342 10340 10338 10337 10336 10335 10334 10333 10331 10331 10331 10331 10332 10332 10332 10335 10337 10339 10342 10346 10350 10355 10360 10364 10367 10372 10376 10380 10386 10389 10391 10397 10401 10403 10407 10413 10417 10421 10423 10424 10427 10431 10433 10436 10439 10443 10445 10446 10450 10453 10454 10456 10458 10458 10459 10462 10463 10464 10467 10471 10473 10475 10477 10478 10482 10485 10486 10486 10488 10489 10492 10495 10498 10500 10501 10503 10504 10505 10507 10512 10516 10520 10522 10524 10525
10346 10344 10341 10338 10336 10333 10331 10331 10330 10329 10328 10326 10325 10325 10324 10325 10327 10327 10329 10331 10332 10335 10338 10342 10346 10351 10355 10358 10363 10368 10373 10379 10384 10388 10394 10397 10398 10404 10409 10412 10415 10418 10419 10423 10426 10429 10432 10434 10437 10439 10441 10445 10446 10447 10450 10452 10451 10453 10456 10457 10459 10462 10465 10467 10470 10472 10473 10475 10478 10479 10480 10481 10483 10485 10488 10491 10493 10493 10493 10495 10497 10501 10506 10510 10512 10514 10516 10517
10343 10341 10338 10335 10332 10329 10327 10326 10325 10323 10322 10321 10321 10320 10319 10320 10321 10322 10323 10324 10326 10329 10333 10335 10338 10343 10347 10350 10356 10364 10369 10374 10380 10385 10388 10388 10392 10398 10402 10405 10409 10412 10414 10417 10420 10424 10427 10430 10432 10433 10435 10439 10441 10441 10443 10445 10445 10447 10450 10452 10454 10456 10458 10461 10464 10466 10466 10468 10470 10471 10472 10474 10477 10479 10482 10484 10486 10486 10486 10487 10489 10493 10498 10501 10503 10505 10507 10509
10339 10337 10335 10332 10329 10326 10323 10322 10321 10319 10318 10317 10316 10316 10315 10315 10315 10317 10317 10318 10320 10324 10327 10329 10331 10335 10339 10343 10349 10356 10360 10363 10371 10376 10377 10379 10385 10391 10395 10399 10402 10405 10408 10412 10416 10420 10423 10424 10426 10427 10429 10432 10433 10434 10437 10439 10439 10441 10445 10447 10448 10449 10452 10455 10457 10458 10459 10460 10461 10463 10465 10469 10471 10472 10474 10476 10478 10479 10480 10481 10482 10484 10489 10492 10494 10495 10497 10499
10336 10334 10332 10329 10327 10324 10321 10319 10317 10316 10314 10314 10313 10312 10311 10311 10311 10312 10313 10314 10315 10319 10321 10323 10325 10329 10334 10337 10341 10346 10350 10356 10362 10366 10368 10373 10380 10385 10389 10394 10396 10399 10402 10407 10411 10413 10414 10416 10419 10421 10423 10425 10426 10428 10430 10432 10434 10437 10440 10442 10442 10442 10445 10448 10449 10450 10452 10453 10454 10458 10461 10463 10464 10465 10466 10468 10470 10472 10473 10474 10476 10478 10480 10483 10484 10485 10487 10489